| time (UTC) | temp F | wind direction | speed MPH | gust MPH | rain 1hr in | rain 24hr in | rain mn in | humidity % | barometer mb |
| 20260507135804 | 72 | 200 | 12.0 | 18.0 | 0.00 | 0.00 | 0.00 | 51 | 1008.6 |
| 20260507134303 | 72 | 161 | 7.0 | 14.0 | 0.00 | 0.00 | 0.00 | 53 | 1008.8 |
| 20260507133804 | 71 | 233 | 8.0 | 17.0 | 0.00 | 0.00 | 0.00 | 53 | 1008.8 |
| 20260507133304 | 71 | 208 | 11.0 | 16.0 | 0.00 | 0.00 | 0.00 | 53 | 1008.9 |
| 20260507132804 | 71 | 216 | 9.0 | 14.0 | 0.00 | 0.00 | 0.00 | 52 | 1008.9 |
| 20260507132307 | 71 | 230 | 8.0 | 14.0 | 0.00 | 0.00 | 0.00 | 53 | 1008.9 |
| 20260507131804 | 71 | 190 | 9.0 | 14.0 | 0.00 | 0.00 | 0.00 | 53 | 1008.9 |
| 20260507131304 | 71 | 177 | 7.0 | 15.0 | 0.00 | 0.00 | 0.00 | 54 | 1008.9 |
| 20260507130804 | 71 | 183 | 11.0 | 20.0 | 0.00 | 0.00 | 0.00 | 53 | 1008.9 |
| 20260507130304 | 71 | 174 | 9.0 | 17.0 | 0.00 | 0.00 | 0.00 | 52 | 1009.0 |
| 20260507125804 | 71 | 205 | 7.0 | 14.0 | 0.00 | 0.00 | 0.00 | 53 | 1009.0 |
| 20260507125306 | 72 | 224 | 7.0 | 15.0 | 0.00 | 0.00 | 0.00 | 52 | 1009.1 |
| 20260507124803 | 72 | 203 | 9.0 | 15.0 | 0.00 | 0.00 | 0.00 | 53 | 1009.1 |
| 20260507124303 | 72 | 182 | 7.0 | 13.0 | 0.00 | 0.00 | 0.00 | 54 | 1009.1 |
| 20260507123804 | 72 | 211 | 9.0 | 16.0 | 0.00 | 0.00 | 0.00 | 53 | 1009.1 |
| 20260507123304 | 72 | 188 | 6.0 | 17.0 | 0.00 | 0.00 | 0.00 | 54 | 1009.2 |
| 20260507122804 | 71 | 215 | 9.0 | 14.0 | 0.00 | 0.00 | 0.00 | 54 | 1009.2 |
| 20260507122307 | 71 | 182 | 8.0 | 17.0 | 0.00 | 0.00 | 0.00 | 55 | 1009.3 |
| 20260507121804 | 72 | 213 | 9.0 | 14.0 | 0.00 | 0.00 | 0.00 | 54 | 1009.3 |
| 20260507121303 | 72 | 206 | 9.0 | 14.0 | 0.00 | 0.00 | 0.00 | 56 | 1009.3 |
| 20260507120804 | 71 | 203 | 7.0 | 14.0 | 0.00 | 0.00 | 0.00 | 55 | 1009.3 |
| 20260507120304 | 71 | 174 | 10.0 | 18.0 | 0.00 | 0.00 | 0.00 | 55 | 1009.4 |
| 20260507115804 | 71 | 223 | 7.0 | 14.0 | 0.00 | 0.00 | 0.00 | 56 | 1009.4 |
| 20260507115307 | 71 | 229 | 9.0 | 18.0 | 0.00 | 0.00 | 0.00 | 56 | 1009.5 |
| 20260507114804 | 71 | 206 | 9.0 | 17.0 | 0.00 | 0.00 | 0.00 | 55 | 1009.4 |
| 20260507114304 | 71 | 191 | 8.0 | 18.0 | 0.00 | 0.00 | 0.00 | 55 | 1009.6 |
| 20260507113803 | 70 | 177 | 7.0 | 13.0 | 0.00 | 0.00 | 0.00 | 56 | 1009.6 |
| 20260507113304 | 70 | 178 | 9.0 | 14.0 | 0.00 | 0.00 | 0.00 | 57 | 1009.6 |
| 20260507112306 | 70 | 207 | 8.0 | 15.0 | 0.00 | 0.00 | 0.00 | 58 | 1009.7 |
| 20260507111804 | 70 | 190 | 6.0 | 13.0 | 0.00 | 0.00 | 0.00 | 58 | 1009.7 |
| 20260507111304 | 69 | 213 | 6.0 | 12.0 | 0.00 | 0.00 | 0.00 | 60 | 1009.8 |
| 20260507110804 | 69 | 219 | 10.0 | 16.0 | 0.00 | 0.00 | 0.00 | 61 | 1009.8 |
| 20260507110304 | 69 | 189 | 11.0 | 20.0 | 0.00 | 0.00 | 0.00 | 60 | 1009.8 |
| 20260507105306 | 69 | 214 | 7.0 | 17.0 | 0.00 | 0.00 | 0.00 | 62 | 1009.8 |
| 20260507104804 | 69 | 210 | 10.0 | 17.0 | 0.00 | 0.00 | 0.00 | 61 | 1009.8 |
| 20260507104303 | 69 | 205 | 6.0 | 13.0 | 0.00 | 0.00 | 0.00 | 61 | 1009.8 |
| 20260507103804 | 69 | 196 | 7.0 | 14.0 | 0.00 | 0.00 | 0.00 | 62 | 1009.8 |
| 20260507102804 | 68 | 178 | 7.0 | 14.0 | 0.00 | 0.00 | 0.00 | 63 | 1009.9 |
| 20260507102306 | 68 | 228 | 7.0 | 14.0 | 0.00 | 0.00 | 0.00 | 64 | 1009.9 |
| 20260507101804 | 68 | 179 | 6.0 | 14.0 | 0.00 | 0.00 | 0.00 | 64 | 1009.9 |
| 20260507100804 | 67 | 175 | 7.0 | 12.0 | 0.00 | 0.00 | 0.00 | 66 | 1010.1 |
| 20260507100304 | 66 | 163 | 5.0 | 12.0 | 0.00 | 0.00 | 0.00 | 66 | 1010.1 |
| 20260507095804 | 67 | 196 | 6.0 | 12.0 | 0.00 | 0.00 | 0.00 | 65 | 1010.1 |
| 20260507095306 | 67 | 189 | 8.0 | 14.0 | 0.00 | 0.00 | 0.00 | 65 | 1010.1 |
| 20260507094803 | 67 | 183 | 8.0 | 14.0 | 0.00 | 0.00 | 0.00 | 66 | 1010.1 |
| 20260507094304 | 67 | 215 | 12.0 | 17.0 | 0.00 | 0.00 | 0.00 | 66 | 1010.1 |
| 20260507093804 | 67 | 206 | 9.0 | 16.0 | 0.00 | 0.00 | 0.00 | 68 | 1010.1 |
| 20260507093304 | 66 | 165 | 7.0 | 13.0 | 0.00 | 0.00 | 0.00 | 69 | 1010.1 |
| 20260507092803 | 66 | 178 | 7.0 | 13.0 | 0.00 | 0.00 | 0.00 | 69 | 1010.1 |
| 20260507092306 | 66 | 162 | 8.0 | 13.0 | 0.00 | 0.00 | 0.00 | 69 | 1010.1 |
| 20260507090804 | 65 | 175 | 10.0 | 14.0 | 0.00 | 0.00 | 0.00 | 71 | 1010.2 |
| 20260507085804 | 66 | 183 | 10.0 | 17.0 | 0.00 | 0.00 | 0.00 | 71 | 1010.2 |
| 20260507085306 | 65 | 142 | 6.0 | 16.0 | 0.00 | 0.00 | 0.00 | 72 | 1010.0 |
| 20260507084803 | 65 | 167 | 6.0 | 15.0 | 0.00 | 0.00 | 0.00 | 72 | 1010.0 |
| 20260507083804 | 65 | 146 | 7.0 | 14.0 | 0.00 | 0.00 | 0.00 | 74 | 1010.1 |
| 20260507083304 | 64 | 138 | 7.0 | 13.0 | 0.00 | 0.00 | 0.00 | 74 | 1010.0 |
| 20260507082804 | 64 | 143 | 9.0 | 13.0 | 0.00 | 0.00 | 0.00 | 74 | 1010.0 |
| 20260507081304 | 64 | 172 | 6.0 | 12.0 | 0.00 | 0.00 | 0.00 | 74 | 1009.9 |
| 20260507080804 | 64 | 167 | 7.0 | 13.0 | 0.00 | 0.00 | 0.00 | 74 | 1009.9 |
| 20260507080304 | 63 | 168 | 7.0 | 12.0 | 0.00 | 0.00 | 0.00 | 74 | 1009.8 |
| 20260507075804 | 63 | 190 | 5.0 | 12.0 | 0.00 | 0.00 | 0.00 | 75 | 1009.8 |
| 20260507075306 | 63 | 188 | 8.0 | 12.0 | 0.00 | 0.00 | 0.00 | 75 | 1009.8 |
| 20260507074304 | 63 | 189 | 6.0 | 15.0 | 0.00 | 0.00 | 0.00 | 74 | 1009.7 |
| 20260507073804 | 62 | 137 | 4.0 | 9.0 | 0.00 | 0.00 | 0.00 | 75 | 1009.7 |
| 20260507073304 | 62 | 180 | 6.0 | 9.0 | 0.00 | 0.00 | 0.00 | 75 | 1009.6 |
| 20260507072803 | 62 | 181 | 3.0 | 8.0 | 0.00 | 0.00 | 0.00 | 75 | 1009.6 |
| 20260507072306 | 62 | 141 | 5.0 | 7.0 | 0.00 | 0.00 | 0.00 | 74 | 1009.5 |
| 20260507071804 | 62 | 157 | 4.0 | 7.0 | 0.00 | 0.00 | 0.00 | 74 | 1009.5 |
| 20260507070804 | 61 | 166 | 3.0 | 5.0 | 0.00 | 0.00 | 0.00 | 75 | 1009.5 |
| 20260507070304 | 61 | 111 | 2.0 | 6.0 | 0.00 | 0.00 | 0.00 | 75 | 1009.4 |
| 20260507065804 | 60 | 94 | 3.0 | 7.0 | 0.00 | 0.00 | 0.00 | 76 | 1009.4 |
| 20260507065306 | 60 | 137 | 3.0 | 6.0 | 0.00 | 0.00 | 0.00 | 76 | 1009.4 |
| 20260507064803 | 60 | 142 | 3.0 | 8.0 | 0.00 | 0.00 | 0.00 | 77 | 1009.4 |
| 20260507064303 | 60 | 155 | 3.0 | 5.0 | 0.00 | 0.00 | 0.00 | 77 | 1009.4 |
| 20260507063804 | 60 | 165 | 3.0 | 3.0 | 0.00 | 0.00 | 0.00 | 78 | 1009.4 |
| 20260507063304 | 60 | 163 | 2.0 | 3.0 | 0.00 | 0.00 | 0.00 | 78 | 1009.3 |
| 20260507062804 | 60 | 146 | 2.0 | 3.0 | 0.00 | 0.00 | 0.00 | 78 | 1009.2 |
| 20260507062306 | 59 | 129 | 2.0 | 3.0 | 0.00 | 0.00 | 0.00 | 78 | 1009.2 |
| 20260507061804 | 59 | 238 | 0.0 | 1.0 | 0.00 | 0.00 | 0.00 | 78 | 1009.1 |
| 20260507061303 | 59 | 211 | 1.0 | 3.0 | 0.00 | 0.00 | 0.00 | 78 | 1009.1 |
| 20260507060804 | 59 | 158 | 1.0 | 3.0 | 0.00 | 0.00 | 0.00 | 79 | 1009.1 |
| 20260507060304 | 59 | 130 | 0.0 | 2.0 | 0.00 | 0.00 | 0.00 | 79 | 1009.0 |
| 20260507055804 | 58 | 161 | 2.0 | 3.0 | 0.00 | 0.00 | 0.00 | 79 | 1009.0 |
| 20260507055306 | 58 | 111 | 1.0 | 5.0 | 0.00 | 0.00 | 0.00 | 80 | 1009.0 |
| 20260507054804 | 58 | 110 | 2.0 | 5.0 | 0.00 | 0.00 | 0.00 | 80 | 1009.0 |
| 20260507054304 | 58 | 154 | 1.0 | 2.0 | 0.00 | 0.00 | 0.00 | 80 | 1008.9 |
| 20260507053804 | 58 | 160 | 1.0 | 2.0 | 0.00 | 0.00 | 0.00 | 80 | 1008.9 |
| 20260507053303 | 58 | 146 | 1.0 | 3.0 | 0.00 | 0.00 | 0.00 | 80 | 1009.0 |
| 20260507052803 | 58 | 124 | 1.0 | 3.0 | 0.00 | 0.00 | 0.00 | 80 | 1009.0 |
| 20260507051803 | 58 | 147 | 1.0 | 2.0 | 0.00 | 0.00 | 0.00 | 80 | 1008.9 |
| 20260507051303 | 58 | 149 | 0.0 | 3.0 | 0.00 | 0.00 | 0.00 | 80 | 1008.9 |
| 20260507050804 | 58 | 186 | 2.0 | 3.0 | 0.00 | 0.00 | 0.00 | 81 | 1008.8 |
| 20260507050304 | 58 | 183 | 0.0 | 2.0 | 0.00 | 0.00 | 0.00 | 81 | 1008.8 |
| 20260507045804 | 58 | 184 | 0.0 | 1.0 | 0.00 | 0.00 | 0.00 | 81 | 1008.8 |
| 20260507045306 | 58 | 204 | 1.0 | 3.0 | 0.00 | 0.00 | 0.00 | 81 | 1008.8 |
| 20260507044304 | 58 | 213 | 2.0 | 3.0 | 0.00 | 0.00 | 0.00 | 80 | 1008.6 |
| 20260507043804 | 58 | 192 | 2.0 | 3.0 | 0.00 | 0.00 | 0.00 | 80 | 1008.4 |
| 20260507043303 | 58 | 178 | 1.0 | 3.0 | 0.00 | 0.00 | 0.00 | 80 | 1008.4 |
| 20260507042804 | 58 | 198 | 2.0 | 3.0 | 0.00 | 0.00 | 0.00 | 80 | 1008.4 |
| 20260507042306 | 58 | 210 | 2.0 | 3.0 | 0.00 | 0.00 | 0.00 | 80 | 1008.4 |
| 20260507041804 | 58 | 196 | 1.0 | 7.0 | 0.00 | 0.00 | 0.00 | 80 | 1008.4 |
| 20260507041304 | 59 | 183 | 3.0 | 6.0 | 0.00 | 0.00 | 0.00 | 80 | 1008.3 |
| 20260507040804 | 59 | 153 | 2.0 | 7.0 | 0.00 | 0.00 | 0.00 | 79 | 1008.3 |
| 20260507040303 | 59 | 130 | 1.0 | 3.0 | 0.00 | 0.00 | 0.00 | 79 | 1008.3 |
| 20260507035804 | 59 | 163 | 2.0 | 3.0 | 0.00 | 0.00 | 0.00 | 79 | 1008.3 |
| 20260507034304 | 59 | 169 | 2.0 | 5.0 | 0.00 | 0.00 | 0.00 | 79 | 1008.3 |
| 20260507033803 | 59 | 154 | 3.0 | 6.0 | 0.00 | 0.00 | 0.00 | 78 | 1008.3 |
| 20260507033304 | 59 | 185 | 2.0 | 6.0 | 0.00 | 0.00 | 0.00 | 78 | 1008.3 |
| 20260507032804 | 59 | 132 | 0.0 | 2.0 | 0.00 | 0.00 | 0.00 | 78 | 1008.4 |
| 20260507031804 | 59 | 190 | 1.0 | 6.0 | 0.00 | 0.00 | 0.00 | 77 | 1008.4 |
| 20260507031304 | 59 | 165 | 3.0 | 5.0 | 0.00 | 0.00 | 0.00 | 77 | 1008.2 |
| 20260507030804 | 59 | 167 | 4.0 | 7.0 | 0.00 | 0.00 | 0.00 | 77 | 1008.2 |
| 20260507030304 | 59 | 180 | 3.0 | 7.0 | 0.00 | 0.00 | 0.00 | 77 | 1008.2 |
| 20260507025803 | 59 | 168 | 3.0 | 6.0 | 0.00 | 0.00 | 0.00 | 78 | 1008.2 |
| 20260507025306 | 59 | 152 | 2.0 | 3.0 | 0.00 | 0.00 | 0.00 | 78 | 1008.2 |
| 20260507024804 | 59 | 129 | 0.0 | 1.0 | 0.00 | 0.00 | 0.00 | 77 | 1008.2 |
| 20260507024303 | 59 | 168 | 0.0 | 3.0 | 0.00 | 0.00 | 0.00 | 77 | 1008.2 |
| 20260507023804 | 59 | 156 | 2.0 | 3.0 | 0.00 | 0.00 | 0.00 | 77 | 1008.2 |
| 20260507023304 | 59 | 187 | 0.0 | 2.0 | 0.00 | 0.00 | 0.00 | 77 | 1008.1 |
| 20260507022804 | 59 | 170 | 1.0 | 2.0 | 0.00 | 0.00 | 0.00 | 77 | 1008.1 |
| 20260507022306 | 59 | 181 | 2.0 | 3.0 | 0.00 | 0.00 | 0.00 | 77 | 1008.1 |
| 20260507021804 | 59 | 175 | 2.0 | 3.0 | 0.00 | 0.00 | 0.00 | 77 | 1008.1 |
| 20260507021304 | 59 | 197 | 3.0 | 5.0 | 0.00 | 0.00 | 0.00 | 77 | 1008.1 |
| 20260507020804 | 59 | 198 | 3.0 | 5.0 | 0.00 | 0.00 | 0.00 | 76 | 1008.1 |
| 20260507020303 | 59 | 182 | 2.0 | 3.0 | 0.00 | 0.00 | 0.00 | 76 | 1008.1 |
| 20260507015306 | 59 | 158 | 4.0 | 7.0 | 0.00 | 0.00 | 0.00 | 76 | 1008.3 |
| 20260507014804 | 59 | 177 | 3.0 | 7.0 | 0.00 | 0.00 | 0.00 | 76 | 1008.3 |
| 20260507014304 | 59 | 191 | 3.0 | 7.0 | 0.00 | 0.00 | 0.00 | 76 | 1008.3 |
| 20260507013804 | 59 | 198 | 3.0 | 8.0 | 0.00 | 0.00 | 0.00 | 75 | 1008.3 |
| 20260507013304 | 59 | 179 | 4.0 | 7.0 | 0.00 | 0.00 | 0.00 | 75 | 1008.4 |
| 20260507012804 | 59 | 187 | 4.0 | 7.0 | 0.00 | 0.00 | 0.00 | 75 | 1008.4 |
| 20260507012306 | 59 | 195 | 5.0 | 8.0 | 0.00 | 0.00 | 0.00 | 75 | 1008.4 |
| 20260507011804 | 59 | 189 | 5.0 | 7.0 | 0.00 | 0.00 | 0.00 | 75 | 1008.4 |
| 20260507011304 | 59 | 178 | 4.0 | 7.0 | 0.00 | 0.00 | 0.00 | 75 | 1008.5 |
| 20260507010804 | 59 | 192 | 3.0 | 5.0 | 0.00 | 0.00 | 0.00 | 75 | 1008.6 |
| 20260507005804 | 59 | 160 | 2.0 | 5.0 | 0.00 | 0.00 | 0.00 | 75 | 1008.7 |
| 20260507005305 | 59 | 184 | 3.0 | 6.0 | 0.00 | 0.00 | 0.00 | 75 | 1008.7 |
| 20260507004804 | 59 | 182 | 4.0 | 7.0 | 0.00 | 0.00 | 0.00 | 75 | 1008.7 |
| 20260507004304 | 59 | 161 | 4.0 | 7.0 | 0.00 | 0.00 | 0.00 | 75 | 1008.8 |
| 20260507003804 | 59 | 176 | 3.0 | 5.0 | 0.00 | 0.00 | 0.00 | 75 | 1008.8 |
| 20260507002306 | 60 | 197 | 5.0 | 7.0 | 0.00 | 0.00 | 0.00 | 74 | 1008.8 |
| 20260507001804 | 60 | 184 | 5.0 | 8.0 | 0.00 | 0.00 | 0.00 | 74 | 1008.8 |
| 20260507001303 | 60 | 202 | 3.0 | 8.0 | 0.00 | 0.00 | 0.00 | 74 | 1008.8 |
| 20260507000804 | 60 | 179 | 5.0 | 9.0 | 0.00 | 0.00 | 0.00 | 74 | 1009.0 |
| 20260507000306 | 60 | 160 | 5.0 | 10.0 | 0.00 | 0.00 | 0.00 | 74 | 1009.0 |
| 20260506235804 | 60 | 163 | 5.0 | 12.0 | 0.00 | 0.00 | 0.00 | 74 | 1009.0 |
| 20260506235306 | 60 | 163 | 6.0 | 9.0 | 0.00 | 0.00 | 0.00 | 74 | 1009.0 |
| 20260506234804 | 60 | 167 | 5.0 | 9.0 | 0.00 | 0.00 | 0.00 | 74 | 1009.0 |
| 20260506234303 | 60 | 154 | 5.0 | 8.0 | 0.00 | 0.00 | 0.00 | 74 | 1009.0 |
| 20260506233304 | 61 | 177 | 5.0 | 8.0 | 0.00 | 0.00 | 0.00 | 73 | 1009.1 |
| 20260506232804 | 61 | 162 | 3.0 | 7.0 | 0.00 | 0.00 | 0.00 | 73 | 1009.1 |
| 20260506232306 | 61 | 187 | 2.0 | 6.0 | 0.00 | 0.00 | 0.00 | 73 | 1009.0 |
| 20260506231804 | 61 | 172 | 5.0 | 8.0 | 0.00 | 0.00 | 0.00 | 73 | 1009.1 |
| 20260506231303 | 61 | 181 | 3.0 | 6.0 | 0.00 | 0.00 | 0.00 | 73 | 1009.1 |
| 20260506230804 | 61 | 165 | 3.0 | 6.0 | 0.00 | 0.00 | 0.00 | 73 | 1009.1 |
| 20260506230304 | 61 | 199 | 3.0 | 6.0 | 0.00 | 0.00 | 0.00 | 72 | 1009.1 |
| 20260506225804 | 61 | 186 | 2.0 | 5.0 | 0.00 | 0.00 | 0.00 | 72 | 1009.2 |
| 20260506225305 | 61 | 191 | 4.0 | 6.0 | 0.00 | 0.00 | 0.00 | 71 | 1009.2 |
| 20260506224804 | 61 | 194 | 3.0 | 6.0 | 0.00 | 0.00 | 0.00 | 71 | 1009.1 |
| 20260506224303 | 62 | 185 | 4.0 | 7.0 | 0.00 | 0.00 | 0.00 | 70 | 1009.2 |
| 20260506223804 | 62 | 180 | 5.0 | 8.0 | 0.00 | 0.00 | 0.00 | 69 | 1009.2 |
| 20260506221804 | 62 | 164 | 5.0 | 10.0 | 0.00 | 0.00 | 0.00 | 66 | 1009.1 |
| 20260506221304 | 62 | 168 | 4.0 | 7.0 | 0.00 | 0.00 | 0.00 | 65 | 1009.0 |
| 20260506220803 | 63 | 177 | 4.0 | 6.0 | 0.00 | 0.00 | 0.00 | 64 | 1009.0 |
| 20260506220303 | 63 | 169 | 3.0 | 7.0 | 0.00 | 0.00 | 0.00 | 63 | 1009.0 |
| 20260506215804 | 63 | 182 | 5.0 | 8.0 | 0.00 | 0.00 | 0.00 | 63 | 1009.0 |
| 20260506215306 | 63 | 163 | 5.0 | 8.0 | 0.00 | 0.00 | 0.00 | 62 | 1009.1 |
| 20260506214303 | 63 | 180 | 6.0 | 8.0 | 0.00 | 0.00 | 0.00 | 61 | 1009.0 |
| 20260506213804 | 64 | 180 | 5.0 | 9.0 | 0.00 | 0.00 | 0.00 | 60 | 1009.0 |
| 20260506212804 | 65 | 172 | 4.0 | 7.0 | 0.00 | 0.00 | 0.00 | 58 | 1008.9 |
| 20260506212306 | 65 | 179 | 4.0 | 7.0 | 0.00 | 0.00 | 0.00 | 58 | 1008.7 |
| 20260506211804 | 65 | 164 | 4.0 | 8.0 | 0.00 | 0.00 | 0.00 | 57 | 1008.7 |
| 20260506211304 | 65 | 174 | 4.0 | 7.0 | 0.00 | 0.00 | 0.00 | 57 | 1008.7 |
| 20260506210804 | 65 | 198 | 3.0 | 6.0 | 0.00 | 0.00 | 0.00 | 57 | 1008.6 |
| 20260506210304 | 65 | 189 | 3.0 | 7.0 | 0.00 | 0.00 | 0.00 | 56 | 1008.4 |
| 20260506205803 | 66 | 189 | 2.0 | 6.0 | 0.00 | 0.00 | 0.00 | 56 | 1008.4 |
| 20260506204304 | 66 | 226 | 3.0 | 12.0 | 0.00 | 0.00 | 0.00 | 55 | 1008.2 |
| 20260506203804 | 66 | 233 | 2.0 | 6.0 | 0.00 | 0.00 | 0.00 | 55 | 1008.2 |
| 20260506203305 | 66 | 208 | 3.0 | 7.0 | 0.00 | 0.00 | 0.00 | 55 | 1008.2 |
| 20260506202804 | 67 | 201 | 4.0 | 7.0 | 0.00 | 0.00 | 0.00 | 54 | 1008.1 |
| 20260506202306 | 67 | 189 | 5.0 | 10.0 | 0.00 | 0.00 | 0.00 | 54 | 1008.1 |
| 20260506201804 | 67 | 211 | 4.0 | 8.0 | 0.00 | 0.00 | 0.00 | 54 | 1008.0 |
| 20260506201304 | 67 | 199 | 5.0 | 10.0 | 0.00 | 0.00 | 0.00 | 53 | 1008.0 |
| 20260506200804 | 67 | 205 | 3.0 | 8.0 | 0.00 | 0.00 | 0.00 | 53 | 1008.0 |
| 20260506200304 | 68 | 218 | 6.0 | 9.0 | 0.00 | 0.00 | 0.00 | 53 | 1008.0 |
| 20260506195804 | 68 | 224 | 5.0 | 12.0 | 0.00 | 0.00 | 0.00 | 52 | 1008.0 |
| 20260506194804 | 69 | 219 | 4.0 | 10.0 | 0.00 | 0.00 | 0.00 | 51 | 1007.9 |
| 20260506194304 | 69 | 226 | 5.0 | 8.0 | 0.00 | 0.00 | 0.00 | 50 | 1007.8 |
| 20260506193803 | 69 | 221 | 3.0 | 6.0 | 0.00 | 0.00 | 0.00 | 50 | 1007.7 |
| 20260506193304 | 69 | 197 | 6.0 | 12.0 | 0.00 | 0.00 | 0.00 | 50 | 1007.7 |
| 20260506192804 | 69 | 233 | 7.0 | 12.0 | 0.00 | 0.00 | 0.00 | 50 | 1007.6 |
| 20260506192305 | 70 | 233 | 9.0 | 14.0 | 0.00 | 0.00 | 0.00 | 51 | 1007.5 |
| 20260506191303 | 70 | 225 | 7.0 | 12.0 | 0.00 | 0.00 | 0.00 | 50 | 1007.4 |
| 20260506190804 | 70 | 224 | 8.0 | 13.0 | 0.00 | 0.00 | 0.00 | 49 | 1007.3 |
| 20260506190304 | 71 | 226 | 5.0 | 10.0 | 0.00 | 0.00 | 0.00 | 48 | 1007.3 |
| 20260506185804 | 71 | 240 | 7.0 | 14.0 | 0.00 | 0.00 | 0.00 | 48 | 1007.3 |
| 20260506185306 | 71 | 245 | 6.0 | 13.0 | 0.00 | 0.00 | 0.00 | 47 | 1007.3 |
| 20260506184804 | 72 | 257 | 7.0 | 10.0 | 0.00 | 0.00 | 0.00 | 47 | 1007.2 |
| 20260506184304 | 72 | 255 | 6.0 | 10.0 | 0.00 | 0.00 | 0.00 | 47 | 1007.2 |
| 20260506183804 | 72 | 227 | 10.0 | 16.0 | 0.00 | 0.00 | 0.00 | 47 | 1007.2 |
| 20260506183304 | 72 | 253 | 7.0 | 12.0 | 0.00 | 0.00 | 0.00 | 46 | 1007.2 |
| 20260506182804 | 73 | 253 | 7.0 | 14.0 | 0.00 | 0.00 | 0.00 | 46 | 1007.2 |
| 20260506182306 | 73 | 241 | 9.0 | 14.0 | 0.00 | 0.00 | 0.00 | 45 | 1007.2 |
| 20260506181803 | 73 | 201 | 6.0 | 12.0 | 0.00 | 0.00 | 0.00 | 46 | 1007.2 |
| 20260506181303 | 73 | 212 | 9.0 | 16.0 | 0.00 | 0.00 | 0.00 | 46 | 1007.1 |
| 20260506180804 | 73 | 236 | 9.0 | 15.0 | 0.00 | 0.00 | 0.00 | 44 | 1007.1 |
| 20260506180304 | 73 | 241 | 10.0 | 14.0 | 0.00 | 0.00 | 0.00 | 43 | 1007.1 |
| 20260506175804 | 74 | 227 | 9.0 | 13.0 | 0.00 | 0.00 | 0.00 | 42 | 1007.1 |
| 20260506175306 | 74 | 231 | 7.0 | 12.0 | 0.00 | 0.00 | 0.00 | 41 | 1007.1 |
| 20260506174804 | 75 | 258 | 5.0 | 9.0 | 0.00 | 0.00 | 0.00 | 41 | 1007.1 |
| 20260506174304 | 75 | 239 | 7.0 | 10.0 | 0.00 | 0.00 | 0.00 | 40 | 1007.1 |
| 20260506173804 | 75 | 238 | 8.0 | 12.0 | 0.00 | 0.00 | 0.00 | 41 | 1007.1 |
| 20260506172306 | 75 | 241 | 7.0 | 12.0 | 0.00 | 0.00 | 0.00 | 41 | 1007.3 |
| 20260506171803 | 75 | 178 | 6.0 | 16.0 | 0.00 | 0.00 | 0.00 | 41 | 1007.3 |
| 20260506171303 | 76 | 220 | 7.0 | 14.0 | 0.00 | 0.00 | 0.00 | 40 | 1007.3 |
| 20260506170804 | 76 | 204 | 6.0 | 12.0 | 0.00 | 0.00 | 0.00 | 40 | 1007.3 |
| 20260506170304 | 76 | 219 | 5.0 | 12.0 | 0.00 | 0.00 | 0.00 | 40 | 1007.3 |
| 20260506165803 | 76 | 223 | 7.0 | 13.0 | 0.00 | 0.00 | 0.00 | 40 | 1007.3 |
| 20260506165305 | 76 | 211 | 9.0 | 13.0 | 0.00 | 0.00 | 0.00 | 40 | 1007.3 |
| 20260506164304 | 77 | 218 | 6.0 | 12.0 | 0.00 | 0.00 | 0.00 | 40 | 1007.5 |
| 20260506163803 | 76 | 193 | 6.0 | 16.0 | 0.00 | 0.00 | 0.00 | 40 | 1007.5 |
| 20260506163304 | 76 | 202 | 9.0 | 14.0 | 0.00 | 0.00 | 0.00 | 39 | 1007.4 |
| 20260506162803 | 76 | 198 | 11.0 | 17.0 | 0.00 | 0.00 | 0.00 | 38 | 1007.4 |
| 20260506162306 | 77 | 160 | 6.0 | 12.0 | 0.00 | 0.00 | 0.00 | 38 | 1007.4 |
| 20260506161304 | 77 | 142 | 5.0 | 9.0 | 0.00 | 0.00 | 0.00 | 34 | 1007.5 |
| 20260506160803 | 77 | 212 | 5.0 | 7.0 | 0.00 | 0.00 | 0.00 | 34 | 1007.5 |
| 20260506160304 | 77 | 129 | 4.0 | 8.0 | 0.00 | 0.00 | 0.00 | 34 | 1007.5 |
| 20260506155803 | 77 | 172 | 3.0 | 9.0 | 0.00 | 0.00 | 0.00 | 36 | 1007.5 |
| 20260506154804 | 76 | 107 | 4.0 | 9.0 | 0.00 | 0.00 | 0.00 | 35 | 1007.6 |
| 20260506153804 | 76 | 122 | 3.0 | 8.0 | 0.00 | 0.00 | 0.00 | 36 | 1007.7 |
| 20260506152804 | 76 | 77 | 7.0 | 12.0 | 0.00 | 0.00 | 0.00 | 36 | 1008.1 |
| 20260506152305 | 76 | 72 | 3.0 | 9.0 | 0.00 | 0.00 | 0.00 | 37 | 1008.1 |
| 20260506151803 | 75 | 126 | 1.0 | 7.0 | 0.00 | 0.00 | 0.00 | 38 | 1008.1 |
| 20260506151304 | 76 | 128 | 6.0 | 8.0 | 0.00 | 0.00 | 0.00 | 37 | 1008.2 |
| 20260506150804 | 76 | 179 | 7.0 | 10.0 | 0.00 | 0.00 | 0.00 | 36 | 1008.2 |
| 20260506150305 | 76 | 134 | 1.0 | 3.0 | 0.00 | 0.00 | 0.00 | 36 | 1008.3 |
| 20260506145803 | 76 | 134 | 3.0 | 5.0 | 0.00 | 0.00 | 0.00 | 36 | 1008.3 |
| 20260506145305 | 76 | 178 | 2.0 | 7.0 | 0.00 | 0.00 | 0.00 | 37 | 1008.4 |
| 20260506144803 | 76 | 187 | 3.0 | 8.0 | 0.00 | 0.00 | 0.00 | 36 | 1008.6 |
| 20260506143803 | 75 | 156 | 3.0 | 8.0 | 0.00 | 0.00 | 0.00 | 37 | 1008.8 |
| 20260506143304 | 75 | 160 | 6.0 | 12.0 | 0.00 | 0.00 | 0.00 | 37 | 1008.8 |
| 20260506142804 | 75 | 171 | 3.0 | 6.0 | 0.00 | 0.00 | 0.00 | 37 | 1008.8 |
| 20260506141804 | 75 | 70 | 2.0 | 6.0 | 0.00 | 0.00 | 0.00 | 37 | 1009.0 |
| 20260506141304 | 74 | 71 | 3.0 | 8.0 | 0.00 | 0.00 | 0.00 | 37 | 1009.1 |
| 20260506140304 | 74 | 109 | 7.0 | 12.0 | 0.00 | 0.00 | 0.00 | 37 | 1009.2 |